Flag Weather past 2 weeks in Pago Pago, American Samoa

Now
81 °F

Passing clouds.


Feels Like: 88 °F
Forecast: 78 / 85 °F
Wind: No wind

Location: Pago Pago / Int. Airp.

Current Time: Nov 27, 2014 at 9:55:11 PM

Latest Report: Nov 27, 2014 at 8:51 PM


Visibility: 10 mi

Pressure: 29.76 "Hg

Humidity: 86%

Dew point: 77 °F

Location of Pago PagoLocation

Historic Weather in Pago Pago — Graph

°F

Pago Pago temperature yesterday

Maximum temperature yesterday: 84 °F (at 8:51 AM)
Minimum temperature yesterday: 78 °F (at 11:50 AM)
Average temperature yesterday: 82 °F

Past Weeks' High & Low Weather Summary

 TemperatureHumidityPressure
High90 °F (Nov 27, 12:50 PM)95% (Nov 23, 1:51 AM)29.95 "Hg (Nov 23, 1:51 AM)
Low74 °F (Nov 23, 2:50 AM)62% (Nov 27, 12:50 PM)29.67 "Hg (Nov 25, 3:50 PM)
Average82 °F81%29.82 "Hg
* Reported Nov 12 8:54 PM — Nov 27 8:51 PM, Pago Pago, Weather by CustomWeather, © 2014

Note: Actual official high and low records may vary slightly from our data, if they occured in-between our weather recording intervals... More about our weather records

Advertising

Pago Pago weather history for previous 24 hours

 ConditionsComfort  
Time TempWeatherWind HumidityBarometerVisibility
8:51 PM
Nov 27
81 °FPassing clouds.No wind86%29.76 "Hg10 mi
7:54 PM82 °FPartly cloudy.3 mph84%29.75 "Hg10 mi
6:50 PM84 °FScattered showers. Passing clouds.No wind79%29.74 "Hg11 mi
5:50 PM85 °FScattered showers. Partly sunny.No wind77%29.72 "Hg12 mi
4:54 PM85 °FBroken clouds.5 mph73%29.71 "Hg12 mi
3:50 PM87 °FBroken clouds.7 mph66%29.70 "Hg12 mi
2:55 PM87 °FBroken clouds.5 mph68%29.70 "Hg12 mi
1:53 PM87 °FBroken clouds.6 mph64%29.72 "Hg12 mi
12:50 PM90 °FPartly sunny.8 mph62%29.72 "Hg12 mi
10:53 AM87 °FPartly sunny.5 mph68%29.75 "Hg12 mi
8:54 AM84 °FOvercast.5 mph77%29.77 "Hg12 mi
7:53 AM83 °FOvercast.3 mph81%29.75 "Hg12 mi
6:50 AM80 °FCloudy.No wind90%29.76 "Hg12 mi
5:50 AM79 °FPartly sunny.No wind90%29.74 "Hg11 mi
4:50 AM79 °FPassing clouds.No wind91%29.72 "Hg10 mi
3:50 AM79 °FPassing clouds.No wind89%29.70 "Hg10 mi
2:50 AM79 °FPassing clouds.3 mph89%29.70 "Hg10 mi
1:50 AM78 °FPassing clouds.3 mph90%29.70 "Hg10 mi
12:50 AM80 °FPartly cloudy.No wind85%29.72 "Hg10 mi
11:50 PM
Nov 26
81 °FPartly cloudy.5 mph84%29.72 "Hg10 mi
10:50 PM81 °FPassing clouds.6 mph83%29.75 "Hg8 mi
9:55 PM81 °FPassing clouds.6 mph84%29.75 "Hg8 mi
Weather by CustomWeather, © 2014

See weather overviewHow to use our weather pages